Year,Month,Day,Hour,Minute,Value (Times are PST for temperature in C)
2016,02,26,00,00,4.20
2016,02,26,00,01,4.20
2016,02,26,00,02,4.20
2016,02,26,00,03,4.20
2016,02,26,00,04,4.20
2016,02,26,00,05,4.20
2016,02,26,00,06,4.20
2016,02,26,00,07,4.20
2016,02,26,00,08,4.20
2016,02,26,00,09,4.20
2016,02,26,00,10,4.20
2016,02,26,00,11,4.20
2016,02,26,00,12,4.20
2016,02,26,00,13,4.20
2016,02,26,00,14,4.30
2016,02,26,00,15,4.30
2016,02,26,00,16,4.30
2016,02,26,00,17,4.30
2016,02,26,00,18,4.30
2016,02,26,00,19,4.30
2016,02,26,00,20,4.30
2016,02,26,00,21,4.30
2016,02,26,00,22,4.30
2016,02,26,00,23,4.30
2016,02,26,00,24,4.30
2016,02,26,00,25,4.30
2016,02,26,00,26,4.30
2016,02,26,00,27,4.30
2016,02,26,00,28,4.30
2016,02,26,00,29,4.30
2016,02,26,00,30,4.30
2016,02,26,00,31,4.30
2016,02,26,00,32,4.30
2016,02,26,00,33,4.30
2016,02,26,00,34,4.30
2016,02,26,00,35,4.30
2016,02,26,00,36,4.30
2016,02,26,00,37,4.30
2016,02,26,00,38,4.30
2016,02,26,00,39,4.30
2016,02,26,00,40,4.30
2016,02,26,00,41,4.30
2016,02,26,00,42,4.30
2016,02,26,00,43,4.30
2016,02,26,00,44,4.30
2016,02,26,00,45,4.30
2016,02,26,00,46,4.30
2016,02,26,00,47,4.30
2016,02,26,00,48,4.30
2016,02,26,00,49,4.30
2016,02,26,00,50,4.30
2016,02,26,00,51,4.30
2016,02,26,00,52,4.30
2016,02,26,00,53,4.30
2016,02,26,00,54,4.30
2016,02,26,00,55,4.30
2016,02,26,00,56,4.30
2016,02,26,00,57,4.30
2016,02,26,00,58,4.30
2016,02,26,00,59,4.30
2016,02,26,01,00,4.30
2016,02,26,01,01,4.30
2016,02,26,01,02,4.20
2016,02,26,01,03,4.20
2016,02,26,01,04,4.20
2016,02,26,01,05,4.20
2016,02,26,01,06,4.20
2016,02,26,01,07,4.20
2016,02,26,01,08,4.20
2016,02,26,01,09,4.20
2016,02,26,01,10,4.20
2016,02,26,01,11,4.20
2016,02,26,01,12,4.20
2016,02,26,01,13,4.20
2016,02,26,01,14,4.20
2016,02,26,01,15,4.20
2016,02,26,01,16,4.20
2016,02,26,01,17,4.20
2016,02,26,01,18,4.20
2016,02,26,01,19,4.20
2016,02,26,01,20,4.20
2016,02,26,01,21,4.20
2016,02,26,01,22,4.10
2016,02,26,01,23,4.10
2016,02,26,01,24,4.20
2016,02,26,01,25,4.20
2016,02,26,01,26,4.20
2016,02,26,01,27,4.20
2016,02,26,01,28,4.20
2016,02,26,01,29,4.20
2016,02,26,01,30,4.10
2016,02,26,01,31,4.10
2016,02,26,01,32,4.10
2016,02,26,01,33,4.10
2016,02,26,01,34,4.10
2016,02,26,01,35,4.10
2016,02,26,01,36,4.10
2016,02,26,01,37,4.10
2016,02,26,01,38,4.10
2016,02,26,01,39,4.10
2016,02,26,01,40,4.10
2016,02,26,01,41,4.10
2016,02,26,01,42,4.10
2016,02,26,01,43,4.10
2016,02,26,01,44,4.10
2016,02,26,01,45,4.10
2016,02,26,01,46,4.10
2016,02,26,01,47,4.10
2016,02,26,01,48,4.10
2016,02,26,01,49,4.10
2016,02,26,01,50,4.10
2016,02,26,01,51,4.10
2016,02,26,01,52,4.10
2016,02,26,01,53,4.10
2016,02,26,01,54,4.10
2016,02,26,01,55,4.10
2016,02,26,01,56,4.10
2016,02,26,01,57,4.10
2016,02,26,01,58,4.10
2016,02,26,01,59,4.10
2016,02,26,02,00,4.10
2016,02,26,02,01,4.10
2016,02,26,02,02,4.10
2016,02,26,02,03,4.10
2016,02,26,02,04,4.10
2016,02,26,02,05,4.10
2016,02,26,02,06,4.10
2016,02,26,02,07,4.10
2016,02,26,02,08,4.10
2016,02,26,02,09,4.10
2016,02,26,02,10,4.20
2016,02,26,02,11,4.20
2016,02,26,02,12,4.20
2016,02,26,02,13,4.20
2016,02,26,02,14,4.20
2016,02,26,02,15,4.20
2016,02,26,02,16,4.20
2016,02,26,02,17,4.20
2016,02,26,02,18,4.20
2016,02,26,02,19,4.20
2016,02,26,02,20,4.20
2016,02,26,02,21,4.20
2016,02,26,02,22,4.20
2016,02,26,02,23,4.20
2016,02,26,02,24,4.20
2016,02,26,02,25,4.20
2016,02,26,02,26,4.20
2016,02,26,02,27,4.20
2016,02,26,02,28,4.20
2016,02,26,02,29,4.20
2016,02,26,02,30,4.20
2016,02,26,02,31,4.20
2016,02,26,02,32,4.20
2016,02,26,02,33,4.10
2016,02,26,02,34,4.10
2016,02,26,02,35,4.10
2016,02,26,02,36,4.10
2016,02,26,02,37,4.10
2016,02,26,02,38,4.10
2016,02,26,02,39,4.10
2016,02,26,02,40,4.00
2016,02,26,02,41,4.00
2016,02,26,02,42,4.00
2016,02,26,02,43,3.90
2016,02,26,02,44,3.90
2016,02,26,02,45,3.90
2016,02,26,02,46,3.90
2016,02,26,02,47,3.90
2016,02,26,02,48,3.90
2016,02,26,02,49,3.90
2016,02,26,02,50,3.90
2016,02,26,02,51,3.90
2016,02,26,02,52,3.80
2016,02,26,02,53,3.80
2016,02,26,02,54,3.80
2016,02,26,02,55,3.80
2016,02,26,02,56,3.80
2016,02,26,02,57,3.80
2016,02,26,02,58,3.80
2016,02,26,02,59,3.80
2016,02,26,03,00,3.80
2016,02,26,03,01,3.70
2016,02,26,03,02,3.70
2016,02,26,03,03,3.70
2016,02,26,03,06,3.60
2016,02,26,03,07,3.60
2016,02,26,03,08,3.60
2016,02,26,03,09,3.60
2016,02,26,03,10,3.60
2016,02,26,03,11,3.60
2016,02,26,03,12,3.60
2016,02,26,03,13,3.60
2016,02,26,03,14,3.60
2016,02,26,03,15,3.60
2016,02,26,03,16,3.60
2016,02,26,03,17,3.60
2016,02,26,03,18,3.60
2016,02,26,03,19,3.60
2016,02,26,03,20,3.60
2016,02,26,03,21,3.60
2016,02,26,03,22,3.60
2016,02,26,03,23,3.60
2016,02,26,03,24,3.60
2016,02,26,03,25,3.60
2016,02,26,03,26,3.60
2016,02,26,03,27,3.60
2016,02,26,03,28,3.60
2016,02,26,03,29,3.60
2016,02,26,03,30,3.60
2016,02,26,03,31,3.60
2016,02,26,03,32,3.60
2016,02,26,03,33,3.60
2016,02,26,03,34,3.60
2016,02,26,03,35,3.60
2016,02,26,03,36,3.60
2016,02,26,03,37,3.60
2016,02,26,03,38,3.60
2016,02,26,03,39,3.60
2016,02,26,03,40,3.60
2016,02,26,03,41,3.50
2016,02,26,03,42,3.60
2016,02,26,03,43,3.60
2016,02,26,03,44,3.60
2016,02,26,03,45,3.50
2016,02,26,03,46,3.50
2016,02,26,03,47,3.50
2016,02,26,03,48,3.50
2016,02,26,03,49,3.50
2016,02,26,03,50,3.50
2016,02,26,03,51,3.50
2016,02,26,03,52,3.50
2016,02,26,03,53,3.50
2016,02,26,03,54,3.50
2016,02,26,03,55,3.40
2016,02,26,03,56,3.40
2016,02,26,03,57,3.40
2016,02,26,03,58,3.40
2016,02,26,03,59,3.40
2016,02,26,04,00,3.40
2016,02,26,04,01,3.40
2016,02,26,04,02,3.30
2016,02,26,04,03,3.30
2016,02,26,04,04,3.30
2016,02,26,04,05,3.30
2016,02,26,04,06,3.30
2016,02,26,04,07,3.30
2016,02,26,04,08,3.30
2016,02,26,04,09,3.30
2016,02,26,04,10,3.30
2016,02,26,04,11,3.20
2016,02,26,04,12,3.20
2016,02,26,04,13,3.20
2016,02,26,04,14,3.20
2016,02,26,04,15,3.20
2016,02,26,04,16,3.20
2016,02,26,04,17,3.20
2016,02,26,04,18,3.20
2016,02,26,04,19,3.10
2016,02,26,04,20,3.10
2016,02,26,04,21,3.10
2016,02,26,04,22,3.10
2016,02,26,04,23,3.10
2016,02,26,04,24,3.10
2016,02,26,04,25,3.10
2016,02,26,04,26,3.10
2016,02,26,04,27,3.10
2016,02,26,04,28,3.10
2016,02,26,04,29,3.10
2016,02,26,04,30,3.10
2016,02,26,04,31,3.10
2016,02,26,04,32,3.10
2016,02,26,04,33,3.10
2016,02,26,04,34,3.10
2016,02,26,04,35,3.10
2016,02,26,04,36,3.10
2016,02,26,04,37,3.10
2016,02,26,04,38,3.10
2016,02,26,04,39,3.10
2016,02,26,04,40,3.10
2016,02,26,04,41,3.10
2016,02,26,04,42,3.10
2016,02,26,04,43,3.10
2016,02,26,04,44,3.10
2016,02,26,04,45,3.10
2016,02,26,04,46,3.10
2016,02,26,04,47,3.20
2016,02,26,04,48,3.20
2016,02,26,04,49,3.20
2016,02,26,04,50,3.20
2016,02,26,04,51,3.20
2016,02,26,04,52,3.20
2016,02,26,04,53,3.20
2016,02,26,04,54,3.20
2016,02,26,04,55,3.20
2016,02,26,04,56,3.10
2016,02,26,04,57,3.10
2016,02,26,04,58,3.10
2016,02,26,04,59,3.10
2016,02,26,05,00,3.10
2016,02,26,05,01,3.00
2016,02,26,05,02,3.00
2016,02,26,05,03,3.00
2016,02,26,05,04,3.00
2016,02,26,05,05,3.00
2016,02,26,05,06,3.00
2016,02,26,05,07,3.00
2016,02,26,05,08,3.00
2016,02,26,05,09,3.00
2016,02,26,05,10,3.00
2016,02,26,05,11,3.00
2016,02,26,05,12,3.10
2016,02,26,05,13,3.10
2016,02,26,05,14,3.10
2016,02,26,05,15,3.10
2016,02,26,05,16,3.10
2016,02,26,05,17,3.10
2016,02,26,05,18,3.10
2016,02,26,05,19,3.10
2016,02,26,05,20,3.10
2016,02,26,05,21,3.10
2016,02,26,05,22,3.10
2016,02,26,05,23,3.10
2016,02,26,05,24,3.10
2016,02,26,05,25,3.10
2016,02,26,05,26,3.10
2016,02,26,05,27,3.10
2016,02,26,05,28,3.10
2016,02,26,05,29,3.10
2016,02,26,05,30,3.10
2016,02,26,05,31,3.10
2016,02,26,05,32,3.10
2016,02,26,05,33,3.00
2016,02,26,05,34,3.00
2016,02,26,05,35,3.00
2016,02,26,05,36,3.00
2016,02,26,05,37,3.00
2016,02,26,05,38,2.90
2016,02,26,05,39,2.90
2016,02,26,05,40,2.90
2016,02,26,05,41,2.90
2016,02,26,05,42,2.90
2016,02,26,05,43,2.90
2016,02,26,05,44,3.00
2016,02,26,05,45,3.00
2016,02,26,05,46,3.00
2016,02,26,05,47,3.00
2016,02,26,05,48,3.00
2016,02,26,05,49,3.00
2016,02,26,05,50,3.00
2016,02,26,05,51,3.10
2016,02,26,05,52,3.10
2016,02,26,05,53,3.10
2016,02,26,05,54,3.10
2016,02,26,05,55,3.10
2016,02,26,05,56,3.10
2016,02,26,05,57,3.10
2016,02,26,05,58,3.20
2016,02,26,05,59,3.20
2016,02,26,06,00,3.20
2016,02,26,06,01,3.20
2016,02,26,06,02,3.20
2016,02,26,06,03,3.20
2016,02,26,06,04,3.20
2016,02,26,06,05,3.20
2016,02,26,06,06,3.20
2016,02,26,06,07,3.20
2016,02,26,06,08,3.20
2016,02,26,06,09,3.20
2016,02,26,06,10,3.20
2016,02,26,06,11,3.20
2016,02,26,06,12,3.20
2016,02,26,06,13,3.20
2016,02,26,06,14,3.20
2016,02,26,06,15,3.20
2016,02,26,06,16,3.20
2016,02,26,06,17,3.20
2016,02,26,06,18,3.20
2016,02,26,06,19,3.20
2016,02,26,06,20,3.20
2016,02,26,06,21,3.20
2016,02,26,06,22,3.20
2016,02,26,06,23,3.20
2016,02,26,06,24,3.30
2016,02,26,06,25,3.30
2016,02,26,06,26,3.30
2016,02,26,06,27,3.30
2016,02,26,06,28,3.30
2016,02,26,06,29,3.30
2016,02,26,06,30,3.30
2016,02,26,06,31,3.30
2016,02,26,06,32,3.30
2016,02,26,06,33,3.30
2016,02,26,06,34,3.30
2016,02,26,06,35,3.30
2016,02,26,06,36,3.30
2016,02,26,06,37,3.30
2016,02,26,06,38,3.20
2016,02,26,06,39,3.20
2016,02,26,06,40,3.20
2016,02,26,06,41,3.20
2016,02,26,06,42,3.20
2016,02,26,06,43,3.20
2016,02,26,06,44,3.20
2016,02,26,06,45,3.20
2016,02,26,06,46,3.20
2016,02,26,06,47,3.20
2016,02,26,06,48,3.20
2016,02,26,06,49,3.20
2016,02,26,06,50,3.20
2016,02,26,06,51,3.20
2016,02,26,06,52,3.20
2016,02,26,06,53,3.20
2016,02,26,06,54,3.20
2016,02,26,06,55,3.30
2016,02,26,06,56,3.30
2016,02,26,06,57,3.30
2016,02,26,06,58,3.30
2016,02,26,06,59,3.40
2016,02,26,07,00,3.40
2016,02,26,07,01,3.40
2016,02,26,07,02,3.40
2016,02,26,07,03,3.40
2016,02,26,07,04,3.40
2016,02,26,07,05,3.40
2016,02,26,07,06,3.40
2016,02,26,07,07,3.40
2016,02,26,07,08,3.40
2016,02,26,07,09,3.40
2016,02,26,07,10,3.40
2016,02,26,07,11,3.40
2016,02,26,07,12,3.40
2016,02,26,07,13,3.40
2016,02,26,07,14,3.40
2016,02,26,07,15,3.40
2016,02,26,07,16,3.40
2016,02,26,07,17,3.40
2016,02,26,07,18,3.40
2016,02,26,07,19,3.40
2016,02,26,07,20,3.40
2016,02,26,07,21,3.40
2016,02,26,07,22,3.40
2016,02,26,07,23,3.40
2016,02,26,07,24,3.40
2016,02,26,07,25,3.40
2016,02,26,07,26,3.40
2016,02,26,07,27,3.40
2016,02,26,07,28,3.50
2016,02,26,07,29,3.50
2016,02,26,07,30,3.50
2016,02,26,07,31,3.60
2016,02,26,07,32,3.60
2016,02,26,07,33,3.60
2016,02,26,07,34,3.60
2016,02,26,07,35,3.60
2016,02,26,07,36,3.60
2016,02,26,07,37,3.60
2016,02,26,07,38,3.60
2016,02,26,07,39,3.60
2016,02,26,07,40,3.60
2016,02,26,07,41,3.60
2016,02,26,07,42,3.60
2016,02,26,07,43,3.60
2016,02,26,07,44,3.60
2016,02,26,07,45,3.60
2016,02,26,07,46,3.60
2016,02,26,07,47,3.60
2016,02,26,07,48,3.60
2016,02,26,07,49,3.60
2016,02,26,07,50,3.60
2016,02,26,07,51,3.60
2016,02,26,07,52,3.60
2016,02,26,07,53,3.60
2016,02,26,07,54,3.60
2016,02,26,07,55,3.60
2016,02,26,07,56,3.60
2016,02,26,07,57,3.60
2016,02,26,07,58,3.70
2016,02,26,07,59,3.70
2016,02,26,08,00,3.70
2016,02,26,08,01,3.70
2016,02,26,08,02,3.70
2016,02,26,08,03,3.80
2016,02,26,08,04,3.80
2016,02,26,08,05,3.80
2016,02,26,08,06,3.80
2016,02,26,08,07,3.90
2016,02,26,08,08,3.90
2016,02,26,08,09,3.90
2016,02,26,08,10,4.00
2016,02,26,08,11,4.00
2016,02,26,08,12,4.00
2016,02,26,08,13,4.10
2016,02,26,08,14,4.10
2016,02,26,08,15,4.10
2016,02,26,08,16,4.10
2016,02,26,08,17,4.10
2016,02,26,08,18,4.20
2016,02,26,08,19,4.20
2016,02,26,08,20,4.20
2016,02,26,08,21,4.20
2016,02,26,08,22,4.20
2016,02,26,08,23,4.30
2016,02,26,08,24,4.30
2016,02,26,08,25,4.30
2016,02,26,08,26,4.30
2016,02,26,08,27,4.30
2016,02,26,08,28,4.30
2016,02,26,08,29,4.40
2016,02,26,08,30,4.40
2016,02,26,08,31,4.40
2016,02,26,08,32,4.40
2016,02,26,08,33,4.40
2016,02,26,08,34,4.50
2016,02,26,08,35,4.50
2016,02,26,08,36,4.50
2016,02,26,08,37,4.60
2016,02,26,08,38,4.60
2016,02,26,08,39,4.60
2016,02,26,08,40,4.70
2016,02,26,08,41,4.70
2016,02,26,08,42,4.70
2016,02,26,08,43,4.80
2016,02,26,08,44,4.80
2016,02,26,08,45,4.80
2016,02,26,08,46,4.90
2016,02,26,08,47,4.90
2016,02,26,08,48,4.90
2016,02,26,08,49,4.90
2016,02,26,08,50,5.00
2016,02,26,08,51,5.00
2016,02,26,08,52,5.00
2016,02,26,08,53,5.10
2016,02,26,08,54,5.10
2016,02,26,08,55,5.10
2016,02,26,08,56,5.10
2016,02,26,08,57,5.10
2016,02,26,08,58,5.20
2016,02,26,08,59,5.20
2016,02,26,09,00,5.20
2016,02,26,09,01,5.20
2016,02,26,09,02,5.20
2016,02,26,09,03,5.20
2016,02,26,09,04,5.30
2016,02,26,09,05,5.30
2016,02,26,09,06,5.30
2016,02,26,09,07,5.30
2016,02,26,09,08,5.40
2016,02,26,09,09,5.40
2016,02,26,09,10,5.40
2016,02,26,09,11,5.40
2016,02,26,09,12,5.40
2016,02,26,09,13,5.50
2016,02,26,09,14,5.50
2016,02,26,09,15,5.50
2016,02,26,09,16,5.60
2016,02,26,09,17,5.60
2016,02,26,09,18,5.60
2016,02,26,09,19,5.60
2016,02,26,09,20,5.60
2016,02,26,09,21,5.60
2016,02,26,09,22,5.60
2016,02,26,09,23,5.60
2016,02,26,09,24,5.60
2016,02,26,09,25,5.60
2016,02,26,09,26,5.60
2016,02,26,09,27,5.60
2016,02,26,09,28,5.60
2016,02,26,09,29,5.60
2016,02,26,09,30,5.70
2016,02,26,09,31,5.70
2016,02,26,09,32,5.70
2016,02,26,09,33,5.70
2016,02,26,09,34,5.70
2016,02,26,09,35,5.80
2016,02,26,09,36,5.80
2016,02,26,09,37,5.80
2016,02,26,09,38,5.80
2016,02,26,09,39,5.90
2016,02,26,09,40,5.90
2016,02,26,09,41,5.90
2016,02,26,09,42,5.90
2016,02,26,09,43,6.00
2016,02,26,09,44,6.00
2016,02,26,09,45,6.00
2016,02,26,09,46,6.10
2016,02,26,09,47,6.10
2016,02,26,09,48,6.10
2016,02,26,09,49,6.10
2016,02,26,09,50,6.20
2016,02,26,09,51,6.20
2016,02,26,09,52,6.20
2016,02,26,09,53,6.30
2016,02,26,09,54,6.30
2016,02,26,09,55,6.30
2016,02,26,09,56,6.30
2016,02,26,09,57,6.30
2016,02,26,09,58,6.40
2016,02,26,09,59,6.40
2016,02,26,10,00,6.40
2016,02,26,10,01,6.50
2016,02,26,10,02,6.50
2016,02,26,10,03,6.60
2016,02,26,10,04,6.60
2016,02,26,10,05,6.60
2016,02,26,10,06,6.70
2016,02,26,10,07,6.70
2016,02,26,10,08,6.70
2016,02,26,10,09,6.80
2016,02,26,10,10,6.80
2016,02,26,10,11,6.80
2016,02,26,10,12,6.80
2016,02,26,10,13,6.90
2016,02,26,10,14,6.90
2016,02,26,10,15,7.00
2016,02,26,10,16,7.00
2016,02,26,10,17,7.10
2016,02,26,10,18,7.10
2016,02,26,10,19,7.20
2016,02,26,10,20,7.20
2016,02,26,10,21,7.20
2016,02,26,10,22,7.30
2016,02,26,10,23,7.30
2016,02,26,10,24,7.30
2016,02,26,10,25,7.30
2016,02,26,10,26,7.40
2016,02,26,10,27,7.40
2016,02,26,10,28,7.40
2016,02,26,10,29,7.40
2016,02,26,10,30,7.50
2016,02,26,10,31,7.50
2016,02,26,10,32,7.50
2016,02,26,10,33,7.50
2016,02,26,10,34,7.60
2016,02,26,10,35,7.60
2016,02,26,10,36,7.60
2016,02,26,10,37,7.70
2016,02,26,10,38,7.70
2016,02,26,10,39,7.70
2016,02,26,10,40,7.80
2016,02,26,10,41,7.80
2016,02,26,10,42,7.80
2016,02,26,10,43,7.90
2016,02,26,10,44,7.90
2016,02,26,10,45,7.90
2016,02,26,10,46,8.00
2016,02,26,10,47,8.10
2016,02,26,10,48,8.10
2016,02,26,10,49,8.20
2016,02,26,10,50,8.20
2016,02,26,10,51,8.20
2016,02,26,10,52,8.30
2016,02,26,10,53,8.30
2016,02,26,10,54,8.30
2016,02,26,10,55,8.30
2016,02,26,10,56,8.30
2016,02,26,10,57,8.30
2016,02,26,10,58,8.30
2016,02,26,10,59,8.30
2016,02,26,11,00,8.40
2016,02,26,11,01,8.40
2016,02,26,11,02,8.40
2016,02,26,11,03,8.40
2016,02,26,11,04,8.40
2016,02,26,11,05,8.40
2016,02,26,11,06,8.40
2016,02,26,11,07,8.40
2016,02,26,11,08,8.30
2016,02,26,11,09,8.30
2016,02,26,11,10,8.30
2016,02,26,11,11,8.40
2016,02,26,11,12,8.40
2016,02,26,11,13,8.40
2016,02,26,11,14,8.40
2016,02,26,11,15,8.40
2016,02,26,11,16,8.50
2016,02,26,11,17,8.50
2016,02,26,11,18,8.50
2016,02,26,11,19,8.60
2016,02,26,11,20,8.60
2016,02,26,11,21,8.70
2016,02,26,11,22,8.70
2016,02,26,11,23,8.70
2016,02,26,11,24,8.80
2016,02,26,11,25,8.80
2016,02,26,11,26,8.90
2016,02,26,11,27,8.90
2016,02,26,11,28,8.90
2016,02,26,11,29,9.00
2016,02,26,11,30,9.10
2016,02,26,11,31,9.10
2016,02,26,11,32,9.20
2016,02,26,11,33,9.20
2016,02,26,11,34,9.30
2016,02,26,11,35,9.30
2016,02,26,11,36,9.40
2016,02,26,11,37,9.40
2016,02,26,11,38,9.50
2016,02,26,11,39,9.50
2016,02,26,11,40,9.60
2016,02,26,11,41,9.60
2016,02,26,11,42,9.60
2016,02,26,11,43,9.70
2016,02,26,11,44,9.70
2016,02,26,11,45,9.70
2016,02,26,11,46,9.70
2016,02,26,11,47,9.80
2016,02,26,11,48,9.80
2016,02,26,11,49,9.80
2016,02,26,11,50,9.80
2016,02,26,11,51,9.80
2016,02,26,11,52,9.80
2016,02,26,11,53,9.80
2016,02,26,11,54,9.90
2016,02,26,11,55,9.90
2016,02,26,11,56,9.90
2016,02,26,11,57,9.90
2016,02,26,11,58,9.90
2016,02,26,11,59,9.90
2016,02,26,12,00,9.90
2016,02,26,12,01,10.00
2016,02,26,12,02,10.00
2016,02,26,12,03,10.00
2016,02,26,12,04,10.00
2016,02,26,12,05,10.10
2016,02,26,12,06,10.10
2016,02,26,12,07,10.10
2016,02,26,12,08,10.10
2016,02,26,12,09,10.10
2016,02,26,12,10,10.10
2016,02,26,12,11,10.10
2016,02,26,12,12,10.10
2016,02,26,12,13,10.10
2016,02,26,12,14,10.10
2016,02,26,12,15,10.10
2016,02,26,12,16,10.10
2016,02,26,12,17,10.10
2016,02,26,12,18,10.10
2016,02,26,12,19,10.10
2016,02,26,12,20,10.10
2016,02,26,12,21,10.20
2016,02,26,12,22,10.20
2016,02,26,12,23,10.20
2016,02,26,12,24,10.20
2016,02,26,12,25,10.20
2016,02,26,12,26,10.20
2016,02,26,12,27,10.20
2016,02,26,12,28,10.30
2016,02,26,12,29,10.30
2016,02,26,12,30,10.30
2016,02,26,12,31,10.30
2016,02,26,12,32,10.40
2016,02,26,12,33,10.40
2016,02,26,12,34,10.40
2016,02,26,12,35,10.40
2016,02,26,12,36,10.40
2016,02,26,12,37,10.50
2016,02,26,12,38,10.50
2016,02,26,12,39,10.60
2016,02,26,12,40,10.60
2016,02,26,12,41,10.60
2016,02,26,12,42,10.70
2016,02,26,12,43,10.70
2016,02,26,12,44,10.70
2016,02,26,12,45,10.70
2016,02,26,12,46,10.70
2016,02,26,12,47,10.70
2016,02,26,12,48,10.70
2016,02,26,12,49,10.70
2016,02,26,12,50,10.60
2016,02,26,12,51,10.60
2016,02,26,12,52,10.60
2016,02,26,12,53,10.60
2016,02,26,12,54,10.60
2016,02,26,12,55,10.60
2016,02,26,12,56,10.60
2016,02,26,12,57,10.60
2016,02,26,12,58,10.60
2016,02,26,12,59,10.50
2016,02,26,13,00,10.50
2016,02,26,13,01,10.50
2016,02,26,13,02,10.40
2016,02,26,13,03,10.40
2016,02,26,13,04,10.40
2016,02,26,13,05,10.40
2016,02,26,13,06,10.40
2016,02,26,13,07,10.40
2016,02,26,13,08,10.50
2016,02,26,13,09,10.50
2016,02,26,13,10,10.50
2016,02,26,13,11,10.60
2016,02,26,13,12,10.60
2016,02,26,13,13,10.60
2016,02,26,13,14,10.60
2016,02,26,13,15,10.60
2016,02,26,13,16,10.60
2016,02,26,13,17,10.60
2016,02,26,13,18,10.70
2016,02,26,13,19,10.70
2016,02,26,13,20,10.70
2016,02,26,13,21,10.70
2016,02,26,13,22,10.70
2016,02,26,13,23,10.80
2016,02,26,13,24,10.80
2016,02,26,13,25,10.80
2016,02,26,13,26,10.80
2016,02,26,13,27,10.80
2016,02,26,13,28,10.80
2016,02,26,13,29,10.80
2016,02,26,13,30,10.80
2016,02,26,13,31,10.80
2016,02,26,13,32,10.80
2016,02,26,13,33,10.80
2016,02,26,13,34,10.80
2016,02,26,13,35,10.80
2016,02,26,13,36,10.80
2016,02,26,13,37,10.80
2016,02,26,13,38,10.80
2016,02,26,13,39,10.80
2016,02,26,13,40,10.80
2016,02,26,13,41,10.80
2016,02,26,13,42,10.80
2016,02,26,13,43,10.80
2016,02,26,13,44,10.80
2016,02,26,13,45,10.80
2016,02,26,13,46,10.80
2016,02,26,13,47,10.80
2016,02,26,13,48,10.90
2016,02,26,13,49,10.90
2016,02,26,13,50,10.80
2016,02,26,13,51,10.80
2016,02,26,13,52,10.80
2016,02,26,13,53,10.80
2016,02,26,13,54,10.90
2016,02,26,13,55,10.90
2016,02,26,13,56,10.90
2016,02,26,13,57,10.90
2016,02,26,13,58,10.90
2016,02,26,13,59,11.00
2016,02,26,14,00,11.00
2016,02,26,14,01,11.00
2016,02,26,14,02,10.90
2016,02,26,14,03,10.90
2016,02,26,14,04,10.90
2016,02,26,14,05,10.80
2016,02,26,14,06,10.80
2016,02,26,14,07,10.80
2016,02,26,14,08,10.90
2016,02,26,14,09,10.90
2016,02,26,14,10,10.90
2016,02,26,14,11,10.90
2016,02,26,14,12,10.90
2016,02,26,14,13,10.90
2016,02,26,14,14,10.90
2016,02,26,14,15,10.90
2016,02,26,14,16,10.90
2016,02,26,14,17,10.90
2016,02,26,14,18,10.90
2016,02,26,14,19,10.90
2016,02,26,14,20,10.90
2016,02,26,14,21,10.90
2016,02,26,14,22,10.80
2016,02,26,14,23,10.80
2016,02,26,14,24,10.80
2016,02,26,14,25,10.80
2016,02,26,14,26,10.80
2016,02,26,14,27,10.80
2016,02,26,14,28,10.80
2016,02,26,14,29,10.80
2016,02,26,14,30,10.80
2016,02,26,14,31,10.80
2016,02,26,14,32,10.80
2016,02,26,14,33,10.80
2016,02,26,14,34,10.80
2016,02,26,14,35,10.80
2016,02,26,14,36,10.80
2016,02,26,14,37,10.80
2016,02,26,14,38,10.80
2016,02,26,14,39,10.80
2016,02,26,14,40,10.80
2016,02,26,14,41,10.80
2016,02,26,14,42,10.80
2016,02,26,14,43,10.80
2016,02,26,14,44,10.80
2016,02,26,14,45,10.80
2016,02,26,14,46,10.80
2016,02,26,14,47,10.80
2016,02,26,14,48,10.80
2016,02,26,14,49,10.80
2016,02,26,14,50,10.80
2016,02,26,14,51,10.80
2016,02,26,14,52,10.80
2016,02,26,14,53,10.80
2016,02,26,14,54,10.80
2016,02,26,14,55,10.80
2016,02,26,14,56,10.80
2016,02,26,14,57,10.80
2016,02,26,14,58,10.80
2016,02,26,14,59,10.80
2016,02,26,15,00,10.80
2016,02,26,15,01,10.80
2016,02,26,15,02,10.80
2016,02,26,15,03,10.80
2016,02,26,15,04,10.80
2016,02,26,15,05,10.80
2016,02,26,15,06,10.80
2016,02,26,15,07,10.80
2016,02,26,15,08,10.70
2016,02,26,15,09,10.70
2016,02,26,15,10,10.70
2016,02,26,15,11,10.70
2016,02,26,15,12,10.70
2016,02,26,15,13,10.70
2016,02,26,15,14,10.70
2016,02,26,15,15,10.70
2016,02,26,15,16,10.70
2016,02,26,15,17,10.70
2016,02,26,15,18,10.70
2016,02,26,15,19,10.60
2016,02,26,15,20,10.60
2016,02,26,15,21,10.60
2016,02,26,15,22,10.60
2016,02,26,15,23,10.70
2016,02,26,15,24,10.70
2016,02,26,15,25,10.70
2016,02,26,15,26,10.70
2016,02,26,15,27,10.70
2016,02,26,15,28,10.70
2016,02,26,15,29,10.70
2016,02,26,15,30,10.70
2016,02,26,15,31,10.70
2016,02,26,15,32,10.70
2016,02,26,15,33,10.70
2016,02,26,15,34,10.70
2016,02,26,15,35,10.70
2016,02,26,15,36,10.70
2016,02,26,15,37,10.70
2016,02,26,15,38,10.70
2016,02,26,15,39,10.70
2016,02,26,15,40,10.60
2016,02,26,15,41,10.60
2016,02,26,15,42,10.60
2016,02,26,15,43,10.60
2016,02,26,15,44,10.60
2016,02,26,15,45,10.60
2016,02,26,15,46,10.60
2016,02,26,15,47,10.60
2016,02,26,15,48,10.60
2016,02,26,15,49,10.50
2016,02,26,15,50,10.50
2016,02,26,15,51,10.50
2016,02,26,15,52,10.50
2016,02,26,15,53,10.50
2016,02,26,15,54,10.50
2016,02,26,15,55,10.50
2016,02,26,15,56,10.50
2016,02,26,15,57,10.40
2016,02,26,15,58,10.40
2016,02,26,15,59,10.40
2016,02,26,16,00,10.40
2016,02,26,16,01,10.40
2016,02,26,16,02,10.40
2016,02,26,16,03,10.30
2016,02,26,16,04,10.30
2016,02,26,16,05,10.30
2016,02,26,16,06,10.30
2016,02,26,16,07,10.30
2016,02,26,16,08,10.20
2016,02,26,16,09,10.20
2016,02,26,16,10,10.20
2016,02,26,16,11,10.20
2016,02,26,16,12,10.10
2016,02,26,16,13,10.10
2016,02,26,16,14,10.10
2016,02,26,16,15,10.10
2016,02,26,16,16,10.10
2016,02,26,16,17,10.10
2016,02,26,16,18,10.10
2016,02,26,16,19,10.00
2016,02,26,16,20,10.00
2016,02,26,16,21,10.00
2016,02,26,16,22,10.00
2016,02,26,16,23,10.00
2016,02,26,16,24,10.00
2016,02,26,16,25,10.00
2016,02,26,16,26,10.00
2016,02,26,16,27,10.00
2016,02,26,16,28,10.00
2016,02,26,16,29,10.00
2016,02,26,16,30,9.90
2016,02,26,16,31,9.90
2016,02,26,16,32,10.00
2016,02,26,16,33,9.90
2016,02,26,16,34,9.90
2016,02,26,16,35,9.90
2016,02,26,16,36,9.90
2016,02,26,16,37,9.90
2016,02,26,16,38,10.00
2016,02,26,16,39,10.00
2016,02,26,16,40,10.00
2016,02,26,16,41,10.00
2016,02,26,16,42,10.00
2016,02,26,16,43,10.00
2016,02,26,16,44,10.00
2016,02,26,16,45,10.00
2016,02,26,16,46,10.10
2016,02,26,16,47,10.10
2016,02,26,16,48,10.10
2016,02,26,16,49,10.10
2016,02,26,16,50,10.10
2016,02,26,16,51,10.10
2016,02,26,16,52,10.10
2016,02,26,16,53,10.10
2016,02,26,16,54,10.10
2016,02,26,16,55,10.10
2016,02,26,16,56,10.10
2016,02,26,16,57,10.10
2016,02,26,16,58,10.10
2016,02,26,16,59,10.10
2016,02,26,17,00,10.10
2016,02,26,17,01,10.20
2016,02,26,17,02,10.20
2016,02,26,17,03,10.20
2016,02,26,17,04,10.20
2016,02,26,17,05,10.20
2016,02,26,17,06,10.20
2016,02,26,17,07,10.20
2016,02,26,17,08,10.20
2016,02,26,17,09,10.30
2016,02,26,17,10,10.30
2016,02,26,17,11,10.30
2016,02,26,17,12,10.30
2016,02,26,17,13,10.30
2016,02,26,17,14,10.30
2016,02,26,17,15,10.30
2016,02,26,17,16,10.30
2016,02,26,17,17,10.30
2016,02,26,17,18,10.30
2016,02,26,17,19,10.30
2016,02,26,17,20,10.20
2016,02,26,17,21,10.20
2016,02,26,17,22,10.20
2016,02,26,17,23,10.20
2016,02,26,17,24,10.20
2016,02,26,17,25,10.20
2016,02,26,17,26,10.20
2016,02,26,17,27,10.20
2016,02,26,17,28,10.20
2016,02,26,17,29,10.20
2016,02,26,17,30,10.20
2016,02,26,17,31,10.20
2016,02,26,17,32,10.20
2016,02,26,17,33,10.10
2016,02,26,17,34,10.10
2016,02,26,17,35,10.10
2016,02,26,17,36,10.10
2016,02,26,17,37,10.10
2016,02,26,17,38,10.00
2016,02,26,17,39,10.00
2016,02,26,17,40,10.00
2016,02,26,17,41,9.90
2016,02,26,17,42,9.90
2016,02,26,17,43,9.90
2016,02,26,17,44,9.90
2016,02,26,17,45,9.80
2016,02,26,17,46,9.80
2016,02,26,17,47,9.80
2016,02,26,17,48,9.80
2016,02,26,17,49,9.80
2016,02,26,17,50,9.80
2016,02,26,17,51,9.80
2016,02,26,17,52,9.80
2016,02,26,17,53,9.80